Wind_Speed
3 3 4 5 5 5 6 7 8 8 8 6 5 5 6 8 10 11 12 13 14 14 14 14 13 13 13 13 13 13 13 14 16 17 18 19 19 19 18 19 19 18 18 18 18 18 17 16 16 15 14 14 14 13 12 12 11 11 10 10 9 9 9 9 9 9 9 9 9 8 8 8 8 8 7 8 8 8 8 7 7 7 7 8 8
2 2 2 3 3 4 4 4 5 6 7 6 6 5 4 4 6 8 9 11 12 13 13 14 14 14 13 13 14 14 14 14 15 16 17 18 18 18 18 19 19 18 18 18 18 17 16 16 16 15 15 15 14 14 13 13 12 12 11 11 10 10 10 11 11 10 10 10 10 10 9 8 9 8 8 8 8 8 8 7 7 7 7 7 7
0 1 1 1 2 2 2 3 3 4 5 5 5 4 4 3 3 5 6 8 9 11 12 13 13 14 14 13 14 14 14 14 13 14 15 16 17 18 18 19 19 19 18 17 17 16 16 16 17 16 16 16 15 15 14 14 13 13 12 11 11 11 11 11 11 11 11 11 11 11 10 10 10 10 9 8 8 8 8 8 7 7 7 7 7
3 2 1 1 2 2 2 2 2 2 2 3 3 3 4 4 4 4 5 6 7 9 10 11 13 13 14 14 14 14 14 14 14 14 14 15 16 16 17 18 19 19 19 17 16 16 16 16 17 17 17 17 17 16 15 15 14 14 13 12 12 11 11 11 11 11 11 11 11 10 10 10 10 11 10 9 9 9 8 8 8 8 8 7 7
5 4 3 3 3 3 3 3 3 2 2 2 3 3 3 4 5 5 6 6 7 8 9 10 11 13 14 14 15 15 15 15 15 15 15 15 15 15 16 16 17 18 19 18 17 17 16 16 16 16 17 17 17 16 16 16 15 15 14 14 13 13 12 12 11 11 11 10 10 10 9 9 9 10 10 9 9 9 9 8 8 8 8 8 8
7 6 5 5 4 4 4 4 5 4 4 3 3 3 4 4 4 5 6 7 7 7 7 8 10 11 12 13 14 14 15 15 15 15 15 15 15 15 15 15 16 16 17 17 17 17 16 16 16 16 16 16 16 16 16 15 15 14 14 14 14 13 13 12 12 11 11 11 10 10 9 9 9 10 10 9 9 9 9 8 8 8 8 8 8
7 8 7 7 6 6 5 5 6 6 6 6 5 5 5 5 5 5 6 7 7 7 7 8 8 9 10 11 11 12 13 14 14 15 15 15 15 15 15 15 16 16 16 16 17 16 16 16 16 16 16 16 16 15 15 14 14 13 13 13 13 13 13 12 12 12 11 11 11 10 10 10 10 10 10 10 10 10 9 9 9 9 9 9 9
7 8 8 9 8 8 7 7 6 7 7 7 7 6 6 6 6 6 6 7 7 8 8 8 8 9 9 9 10 11 12 13 13 14 14 14 15 15 15 16 16 17 17 17 17 17 16 16 16 16 16 16 15 15 14 13 13 12 12 12 12 12 12 12 11 11 11 11 10 10 10 10 10 11 11 11 11 10 10 9 9 8 8 8 8
6 7 8 9 9 10 9 9 8 8 8 8 8 8 8 8 8 7 8 8 8 8 9 9 9 10 10 10 11 11 12 13 13 13 13 14 15 15 15 16 16 16 17 17 17 17 16 16 16 15 15 15 14 14 14 13 13 12 12 12 12 11 11 10 10 10 10 10 10 10 10 10 10 10 11 10 10 10 9 9 8 7 7 7 7
5 6 7 8 9 10 11 11 10 10 9 9 9 10 10 10 10 9 9 9 9 9 9 9 10 10 10 11 11 12 12 13 13 13 13 14 14 14 15 15 15 15 15 16 16 16 16 16 15 15 15 14 14 13 13 13 13 12 12 12 11 11 10 10 10 10 10 9 9 9 9 10 10 10 10 9 9 9 8 7 7 6 6 5 4
5 6 6 7 8 9 10 11 12 12 11 11 11 11 11 12 11 11 11 11 10 10 10 10 10 11 11 11 12 12 12 13 13 13 13 13 13 14 14 14 14 15 15 15 15 15 16 16 15 15 14 14 14 13 13 13 13 12 12 12 12 11 11 11 10 10 10 10 10 10 10 10 10 10 10 9 9 8 8 7 7 6 5 4 3
7 6 6 6 7 8 9 10 12 13 13 13 12 12 12 12 13 13 13 13 12 12 12 12 12 12 12 12 12 12 12 13 13 13 13 13 13 14 14 14 14 14 15 15 15 15 15 15 15 15 14 14 14 14 13 13 13 12 12 12 12 12 12 12 11 11 11 11 11 11 11 11 11 11 10 10 9 9 8 8 7 6 5 4 3
8 7 7 7 7 7 8 9 10 12 13 14 14 14 14 14 14 14 14 15 15 15 14 14 13 14 13 13 14 14 14 13 13 13 14 14 14 14 14 15 15 15 15 15 15 15 15 15 15 15 14 14 14 14 13 13 13 13 13 13 12 12 12 12 12 12 12 12 12 12 12 12 12 12 12 11 10 10 9 8 7 6 5 5 4
9 8 8 7 7 7 8 8 9 10 12 13 15 16 16 15 15 15 15 15 16 16 16 16 16 16 16 15 15 15 15 15 15 15 15 15 15 15 15 15 15 15 15 15 15 15 15 15 15 15 15 14 14 14 14 13 13 13 13 13 13 13 13 13 13 13 13 13 13 13 13 13 13 13 13 11 11 10 10 9 8 7 6 6 4
9 9 9 8 8 8 8 9 9 9 10 11 13 15 16 17 17 16 16 16 16 17 17 17 17 17 18 17 17 16 16 16 16 16 16 16 16 16 16 16 16 16 16 16 16 16 16 16 16 15 15 15 15 15 14 14 14 14 14 14 14 13 13 13 13 14 14 14 14 14 13 13 13 13 13 12 12 11 11 10 9 9 8 7 6
10 10 10 9 9 9 9 9 9 9 10 10 11 13 15 16 17 18 18 18 18 18 18 18 18 19 19 19 19 19 18 18 18 18 18 18 18 18 18 18 18 18 17 17 17 17 17 17 16 16 16 16 16 16 16 15 15 15 15 15 14 14 14 14 14 14 14 14 14 14 14 14 14 14 14 14 13 12 12 12 11 11 10 9 9
11 11 10 10 10 10 10 10 10 10 10 10 11 11 12 14 16 17 18 19 19 19 19 19 19 20 20 20 21 21 21 21 21 20 20 19 19 19 19 19 19 19 19 19 19 19 19 19 19 18 18 18 18 18 17 17 17 16 16 16 16 15 15 15 15 15 15 15 14 14 14 15 15 16 16 16 15 14 14 14 13 13 12 12 11
12 13 12 11 10 10 11 11 11 11 11 11 11 11 11 12 13 15 16 18 19 19 20 20 21 21 21 21 22 22 23 23 23 23 23 22 22 21 21 20 20 20 20 20 20 21 21 21 21 21 21 20 20 20 19 19 18 18 17 17 17 17 17 17 17 17 17 16 16 15 15 16 16 17 18 18 18 17 16 16 15 15 15 15 15
14 14 14 13 12 11 12 12 12 12 12 12 12 12 12 12 13 13 14 16 17 18 19 20 21 22 22 22 23 23 23 24 24 25 26 26 25 25 24 23 22 22 21 21 22 22 22 23 23 23 23 23 22 22 22 21 20 20 19 19 18 18 18 18 18 18 18 18 18 17 17 17 17 18 19 20 20 19 19 18 18 18 18 18 18
17 16 15 15 14 14 13 13 13 13 12 12 12 12 13 13 13 13 14 15 15 16 18 19 20 21 22 23 23 24 24 25 25 25 26 27 28 28 27 27 26 25 24 24 23 23 23 24 24 24 25 25 24 24 24 24 23 22 22 21 20 20 20 19 19 19 19 19 19 19 19 19 19 19 20 21 21 21 21 21 21 20 20 20 20
20 19 18 17 16 17 16 16 15 14 14 13 13 13 13 13 14 14 14 15 15 16 17 18 19 20 21 21 22 23 24 24 25 25 26 27 28 29 29 29 29 28 27 27 26 25 25 25 25 25 26 26 26 26 26 26 26 25 25 24 23 23 22 22 21 21 21 21 21 21 20 20 21 21 22 23 23 23 24 24 24 23 23 23 23
22 22 21 20 20 20 19 18 18 17 16 15 15 14 14 14 15 15 15 15 16 17 17 18 19 19 20 21 21 22 23 23 24 24 25 26 27 28 29 30 30 30 30 29 28 28 28 28 27 27 27 27 28 28 28 28 28 28 28 27 27 26 25 25 24 23 23 23 22 22 22 22 22 23 24 24 25 25 26 26 26 26 26 26 25
24 24 23 23 23 23 23 22 21 20 19 17 16 16 16 16 16 16 16 17 17 18 18 19 19 20 20 21 21 22 22 23 23 24 24 25 26 27 27 28 30 31 31 31 30 30 30 30 30 30 29 29 29 29 29 29 29 30 30 30 29 29 28 27 26 26 25 24 24 24 24 24 24 24 25 26 27 27 28 28 29 29 28 28 28
27 25 25 25 26 27 26 26 25 24 22 21 20 19 18 18 18 18 19 18 18 19 19 20 20 20 21 21 22 22 23 23 23 24 24 25 25 26 27 27 28 30 31 31 32 32 32 32 32 32 31 31 31 31 30 30 30 30 30 31 31 30 30 29 29 28 27 27 26 26 26 26 26 26 26 27 28 29 29 30 30 30 30 30 30
30 28 27 27 28 29 29 29 29 27 26 25 24 23 22 20 20 21 21 20 20 21 21 21 21 21 22 22 23 23 23 23 24 24 25 25 26 26 27 27 28 29 30 31 32 32 32 33 33 33 33 33 33 32 32 32 31 31 31 31 31 31 31 31 31 30 30 29 29 29 29 29 29 29 29 29 30 30 30 31 32 32 32 32 31
32 31 30 29 29 30 30 31 31 31 30 29 28 27 26 25 24 23 23 23 23 23 24 24 24 23 23 23 23 24 24 24 25 25 25 26 26 26 27 27 28 29 30 31 32 32 33 33 34 34 34 34 33 33 33 33 33 33 33 33 32 32 32 32 32 32 32 32 32 32 32 32 31 32 32 32 32 32 32 32 32 33 33 33 33
32 33 33 32 31 31 31 32 33 33 33 32 31 30 30 29 28 27 27 27 26 26 26 26 26 26 25 25 25 25 26 26 26 26 26 26 26 27 27 28 28 29 30 31 31 32 33 33 34 34 34 34 34 34 34 34 34 34 34 34 34 34 34 34 34 34 34 34 34 34 34 34 34 34 34 35 35 35 35 35 34 34 34 34 34
30 32 33 33 34 34 33 32 33 34 34 34 33 33 33 32 31 31 30 30 30 30 30 29 29 28 28 28 28 28 28 27 27 27 27 27 27 27 28 28 29 30 30 31 31 32 32 33 33 34 34 34 35 35 35 35 35 35 35 35 35 35 35 35 35 36 36 36 36 37 37 37 37 37 37 37 37 37 37 37 37 37 36 36 36
29 31 32 32 33 34 33 32 31 32 34 34 34 34 34 34 33 33 33 33 33 33 33 33 32 31 31 30 31 31 30 30 30 29 28 28 28 28 28 29 29 30 31 31 31 32 32 33 33 34 34 34 35 35 35 36 36 36 36 36 36 36 36 36 37 37 38 38 38 39 39 39 39 39 38 38 38 38 38 38 38 39 38 38 38
30 31 31 31 33 33 31 31 31 31 32 32 33 34 34 34 34 35 35 34 34 34 35 35 34 34 34 33 33 33 33 33 32 31 30 29 29 29 29 29 30 30 31 31 32 32 32 33 33 34 34 34 35 35 35 35 36 36 36 36 35 36 36 36 36 37 37 38 38 39 39 39 39 39 38 38 38 37 38 38 38 39 39 40 39
30 32 32 33 34 32 30 29 30 30 30 30 31 32 32 32 33 34 34 33 34 35 35 35 36 36 36 36 36 35 35 35 35 34 33 32 31 31 30 30 30 31 31 32 32 33 33 33 33 33 33 34 34 34 34 34 34 34 34 34 34 34 34 35 35 35 36 37 37 38 38 38 38 38 39 39 38 38 38 38 38 38 39 39 39
31 32 33 34 34 34 32 30 29 27 27 29 30 31 31 31 31 31 31 32 33 34 33 34 35 36 37 38 37 37 37 37 36 36 35 34 34 33 32 31 31 32 32 33 33 33 34 34 34 33 33 34 34 34 34 34 33 33 33 33 33 33 34 34 34 35 35 36 36 36 37 38 38 39 39 39 39 39 39 39 38 38 38 38 38
33 34 34 34 35 35 34 32 29 27 26 27 28 29 29 29 29 29 30 31 32 32 32 33 34 35 37 38 38 39 39 39 38 37 36 36 35 35 34 34 33 33 33 34 35 35 35 35 35 35 35 35 35 34 34 34 34 33 33 33 34 34 34 34 34 34 34 35 35 35 36 37 37 38 39 39 40 40 40 40 40 40 40 39 38
35 35 35 35 35 35 35 33 31 29 27 26 26 27 28 29 29 29 30 31 32 32 31 32 33 34 36 38 39 39 39 39 39 38 37 37 37 36 36 36 35 35 35 35 36 36 37 37 36 36 36 36 36 35 35 35 34 34 34 34 35 35 35 35 35 35 35 35 36 36 37 37 37 38 38 39 40 40 41 41 42 42 42 42 41
37 35 35 36 36 35 35 34 32 31 29 28 27 27 28 29 29 29 30 31 31 31 31 31 32 34 35 37 38 39 39 39 39 38 38 38 38 38 37 37 37 36 35 35 36 37 38 38 38 38 38 38 37 37 36 36 35 35 36 36 36 37 37 37 37 37 37 37 38 38 38 39 39 39 39 39 40 40 41 41 42 43 43 43 43
36 36 36 37 37 36 35 35 34 33 31 30 30 29 29 29 29 29 30 30 30 30 30 30 31 33 34 35 36 37 37 38 38 39 39 39 39 39 39 38 38 37 36 36 36 37 38 39 39 39 39 39 39 39 37 37 37 37 37 38 38 38 39 39 39 39 39 39 39 40 40 40 41 40 40 40 40 40 40 41 42 42 43 43 43
32 33 34 36 37 37 37 35 35 35 34 33 32 32 31 30 30 29 29 29 30 30 30 30 31 32 33 33 34 35 36 37 39 39 39 39 40 40 39 39 38 38 37 37 37 37 38 39 39 39 39 40 40 40 39 39 39 39 39 40 40 41 41 41 41 41 41 41 41 41 41 41 41 41 40 40 40 39 39 40 40 41 42 42 42
31 30 31 33 35 37 38 37 36 36 36 35 34 34 34 33 31 31 30 30 30 31 31 31 31 32 32 33 33 35 36 37 38 39 39 39 39 39 39 39 39 39 39 38 38 38 38 38 39 39 40 41 41 41 41 41 41 41 42 42 42 43 43 43 42 42 43 43 42 41 41 41 41 40 40 39 39 38 38 38 39 39 40 41 41
30 28 27 28 30 33 35 36 36 37 37 37 36 36 36 35 34 33 33 32 32 33 32 32 32 32 32 33 33 34 35 36 37 38 38 38 39 39 39 39 39 39 39 39 39 39 39 38 38 39 41 41 42 42 42 42 43 43 43 43 44 44 44 44 44 44 44 43 43 42 41 40 39 39 39 39 38 38 38 38 38 38 39 40 40
30 29 28 27 27 28 29 30 33 35 36 37 37 37 37 36 36 35 35 35 35 34 33 33 32 33 33 34 34 34 34 36 37 38 38 39 39 40 39 40 40 40 40 40 40 40 40 39 39 40 41 42 43 42 42 43 44 44 44 44 44 44 44 45 45 46 45 44 43 42 40 39 39 38 38 38 39 39 38 38 38 38 38 39 39
32 32 31 30 29 28 27 28 30 32 33 34 36 37 37 37 37 37 38 37 37 36 34 33 33 34 35 35 35 35 35 37 38 39 40 41 42 42 42 42 42 42 42 42 42 43 42 41 40 40 42 43 44 44 44 44 44 44 44 44 44 44 45 46 47 47 46 45 43 42 41 40 39 38 38 38 39 39 39 39 39 39 39 39 39
34 35 34 32 30 29 28 28 29 30 31 33 35 37 38 38 39 39 39 39 38 37 36 36 36 37 37 37 36 36 37 39 40 42 43 44 44 44 44 45 45 45 44 44 44 45 44 43 41 42 43 45 45 44 44 44 44 44 44 44 44 45 46 47 48 48 47 45 44 43 42 41 40 40 39 39 39 39 39 39 40 40 40 40 40
34 34 33 32 30 28 28 28 28 29 31 33 34 36 38 39 40 41 41 41 41 40 39 39 40 40 39 39 39 39 40 41 42 44 45 46 46 45 46 46 47 47 46 46 46 46 45 45 45 45 46 46 46 44 44 44 44 44 44 45 45 47 48 48 49 49 47 46 45 44 43 43 42 41 41 40 40 40 39 39 40 40 40 41 41
31 31 30 30 29 28 27 27 27 28 29 31 33 36 37 39 41 42 42 43 43 42 43 43 43 43 43 43 43 43 44 44 45 46 47 47 47 47 47 48 47 47 47 47 47 47 47 47 47 47 47 47 46 44 44 44 44 44 45 46 47 49 49 48 49 48 47 46 46 45 45 44 43 43 42 41 41 41 41 41 40 40 41 41 41
29 28 28 28 29 28 27 26 26 27 28 29 31 33 35 38 39 41 42 43 43 44 45 45 45 45 45 46 46 47 47 48 48 48 48 49 48 48 48 48 48 47 46 46 45 46 47 47 48 48 48 47 46 45 45 45 44 45 46 47 48 50 49 48 49 47 47 47 46 45 45 44 44 44 44 43 43 42 42 42 42 42 42 42 42
30 30 30 30 31 31 30 30 29 30 31 32 33 33 34 36 37 39 40 42 43 44 45 46 47 47 48 48 48 49 49 50 50 50 50 50 50 50 49 49 48 47 46 45 45 45 45 46 47 48 48 47 47 47 46 44 45 45 46 48 49 50 49 48 48 47 47 47 46 45 44 44 44 44 44 44 44 44 44 44 44 44 44 44 44
33 33 34 35 36 36 37 37 37 37 39 40 41 40 38 38 38 38 39 41 42 44 45 47 48 49 49 49 50 50 51 51 51 51 51 51 51 51 50 50 50 49 47 46 45 44 45 46 47 48 48 48 48 47 45 45 46 46 47 49 49 50 50 49 48 48 48 47 46 45 45 44 44 45 45 45 45 45 45 45 45 45 45 45 45
36 37 38 39 40 41 42 42 43 44 46 48 48 46 43 42 41 41 41 41 42 43 45 46 47 49 50 51 51 52 52 53 53 52 51 51 51 51 51 51 51 50 49 48 45 44 45 46 48 49 49 49 49 47 47 47 47 47 48 49 50 50 50 49 49 49 49 48 46 46 46 46 45 45 45 45 45 45 45 45 45 46 46 46 46
40 41 41 42 43 44 45 47 48 50 51 52 52 49 47 45 44 44 44 45 45 45 46 46 47 48 50 51 52 53 53 54 54 54 53 53 53 52 52 52 52 51 51 50 47 45 46 47 48 49 50 50 50 49 49 48 48 49 49 50 51 51 51 51 51 50 50 49 48 48 48 48 47 46 46 45 45 45 45 45 45 46 46 47 47
45 46 46 46 47 48 50 51 53 55 56 56 54 51 49 48 46 46 47 48 48 48 49 49 49 49 50 51 53 54 55 55 55 55 54 54 54 54 53 53 53 53 53 52 49 47 48 48 49 50 51 51 50 50 50 49 50 50 50 51 52 52 53 53 52 51 50 50 50 50 50 49 49 48 47 46 45 45 44 45 45 45 46 46 47
50 51 52 53 53 54 54 56 57 58 58 58 57 54 52 50 48 48 49 50 51 51 51 51 52 52 52 53 53 54 55 56 56 56 56 56 55 55 55 55 55 55 54 54 52 50 50 51 52 52 52 52 51 51 51 51 51 52 52 53 53 54 55 54 53 52 52 51 52 51 51 51 50 49 48 47 46 45 44 44 45 45 45 46 46
Wind_Direction
58 68 72 72 68 61 60 69 84 92 93 96 108 136 161 174 181 189 195 201 206 210 213 215 218 220 220 220 220 220 218 215 213 210 206 204 202 199 197 197 197 198 200 202 204 206 206 206 207 209 212 217 221 224 228 231 233 236 237 237 237 236 234 234 234 235 235 236 239 243 247 252 254 252 249 246 242 240 242 244 249 253 255 258 259
63 72 82 90 84 78 70 66 73 85 94 97 100 107 127 159 175 184 190 196 201 204 207 209 212 215 216 218 220 221 221 219 217 216 214 213 210 208 206 206 205 205 206 207 209 210 212 213 214 216 217 220 224 228 232 235 236 237 238 240 240 239 238 238 239 239 240 240 241 245 247 250 254 255 252 251 248 245 244 245 248 252 254 256 259
231 118 107 119 122 114 100 82 78 84 94 102 107 111 120 138 167 184 192 197 200 203 205 206 207 210 213 216 220 222 224 223 222 219 217 215 215 215 216 217 216 215 214 214 215 217 218 218 219 220 222 223 226 228 232 236 238 240 243 244 245 244 243 241 242 243 244 245 245 247 248 250 254 256 254 254 255 253 251 250 251 253 256 259 261
261 231 186 170 171 173 170 150 121 106 111 116 122 129 134 141 156 177 195 203 206 207 208 208 208 208 210 213 216 219 220 221 220 219 216 215 214 214 216 219 221 222 222 221 221 222 222 222 223 224 226 227 229 230 232 235 238 241 244 246 248 248 247 246 245 244 245 246 247 248 248 248 251 254 254 254 255 254 251 252 254 256 260 264 266
269 260 243 214 198 197 199 197 190 178 167 160 154 157 161 158 161 169 181 196 206 210 210 211 212 211 211 212 213 214 215 215 215 216 216 215 213 212 213 214 217 221 223 224 225 225 224 225 225 226 228 229 231 231 232 233 235 237 241 244 245 247 249 248 246 245 243 243 244 244 243 242 242 247 249 249 247 247 247 247 247 248 251 257 262
267 261 254 243 230 216 207 208 210 208 203 197 191 189 188 184 179 178 180 184 193 202 208 210 211 212 213 213 214 214 212 212 211 212 213 212 211 210 209 208 210 214 217 220 222 223 223 225 225 225 226 227 228 229 229 229 231 232 235 239 241 243 245 245 245 244 241 240 239 238 237 234 234 238 240 240 240 242 242 241 239 239 241 244 248
263 258 255 252 248 237 221 214 214 216 217 214 210 209 208 204 198 195 194 190 189 193 200 205 207 208 210 211 213 213 212 211 210 209 208 207 207 205 203 202 204 207 208 210 213 215 217 220 221 222 223 225 225 225 225 226 226 227 229 232 235 236 237 238 239 240 239 237 235 234 232 231 231 234 236 235 236 237 237 237 237 238 240 242 243
260 258 254 252 250 246 240 229 220 217 220 222 222 219 217 215 212 209 207 204 201 198 200 202 205 206 206 206 206 208 209 210 210 208 205 203 203 202 201 201 201 203 203 203 206 208 211 215 216 218 221 222 222 221 221 221 220 220 222 225 228 230 230 230 231 233 234 233 232 230 228 227 228 231 234 234 234 234 233 234 237 238 240 244 247
263 262 257 253 250 247 245 241 234 226 220 221 224 225 223 222 221 220 217 215 212 209 208 207 209 211 209 208 206 206 206 208 209 208 206 205 205 204 203 202 203 205 204 203 205 207 210 213 215 216 218 219 219 218 218 217 215 214 215 218 220 222 224 224 224 225 226 227 227 227 225 224 224 227 231 231 231 233 232 231 233 235 238 242 248
272 268 264 260 255 250 246 243 241 237 229 222 221 222 224 225 226 225 224 223 221 218 215 214 216 217 217 217 216 214 213 213 214 213 211 211 211 211 209 208 207 209 208 206 207 208 211 213 214 216 217 218 218 217 216 215 213 212 213 215 216 219 222 223 224 223 223 223 225 226 226 225 224 226 228 226 225 226 227 225 225 226 228 234 241
290 279 273 269 265 259 253 246 241 239 235 230 225 223 222 223 224 224 226 228 229 227 223 221 222 223 223 225 226 225 224 222 222 222 221 220 220 220 220 219 217 216 216 214 213 214 215 216 217 218 219 219 219 219 219 218 217 216 216 217 218 220 222 224 227 227 226 225 226 227 228 228 228 230 228 224 221 220 222 221 219 216 214 215 214
310 299 289 280 273 267 262 255 247 241 237 234 231 228 226 225 223 223 224 226 228 230 229 228 228 228 228 228 231 231 231 230 230 229 229 229 228 228 228 229 229 227 226 224 222 221 222 222 222 223 222 222 222 223 223 223 223 222 220 221 222 222 223 225 227 229 230 230 230 229 229 230 231 233 230 226 224 221 220 219 213 204 198 195 185
316 311 305 295 284 273 267 263 257 251 244 238 235 232 231 229 228 227 225 225 225 227 228 230 230 232 233 232 233 234 233 234 234 234 234 234 233 233 232 233 234 234 233 232 230 228 227 226 226 226 225 225 224 225 226 226 227 227 226 226 225 226 226 228 229 231 233 234 234 234 232 231 232 234 232 228 224 220 216 213 207 200 197 196 189
311 309 308 303 296 287 276 269 264 259 254 247 241 237 235 233 232 231 230 230 229 228 228 228 229 230 232 233 234 235 236 235 236 236 236 237 236 236 236 235 235 236 236 236 235 233 230 228 227 228 227 227 226 227 228 229 231 232 232 231 231 231 231 231 232 233 235 236 237 238 237 236 233 233 231 225 219 216 214 213 211 207 207 210 212
304 303 303 301 298 294 288 281 273 266 261 256 250 244 241 238 236 234 233 234 234 234 233 233 233 233 233 234 235 235 236 237 237 238 238 238 239 239 239 238 238 238 237 237 237 237 236 233 231 230 230 230 230 231 232 234 235 236 237 237 236 235 234 234 234 235 236 238 239 240 240 239 236 232 227 220 216 218 221 223 221 217 216 224 233
301 300 299 297 295 293 290 288 283 277 270 264 258 253 248 244 242 240 238 237 237 237 238 238 238 238 238 239 239 239 238 238 239 239 240 240 241 242 242 242 242 242 241 240 239 240 240 240 240 238 237 236 236 237 237 238 239 240 241 241 241 240 239 237 236 236 237 238 239 240 240 240 238 231 225 221 222 226 231 232 232 230 230 234 243
298 297 296 294 294 292 289 288 286 284 280 275 268 262 257 252 249 246 244 243 242 242 241 241 241 242 242 242 243 243 242 241 241 241 241 242 243 244 245 245 245 246 246 245 244 244 244 244 245 246 246 245 244 243 242 242 241 242 243 243 243 243 243 241 240 239 239 239 240 240 241 240 238 234 230 230 232 235 237 239 242 244 245 246 249
291 291 292 291 291 290 288 287 285 285 284 281 277 272 266 261 257 253 251 249 248 246 246 245 245 245 245 246 246 246 246 245 244 243 243 244 245 246 247 248 249 249 249 249 249 248 248 247 247 248 249 250 250 249 248 246 245 244 245 245 246 245 245 244 243 242 242 241 241 241 242 242 241 239 238 239 242 243 244 246 248 251 254 255 256
283 284 287 288 288 287 284 282 282 283 282 281 279 276 272 268 265 261 258 256 254 252 251 250 249 250 250 250 250 250 250 249 248 247 246 246 246 247 247 249 250 250 251 252 252 252 252 251 250 250 250 250 251 251 251 250 250 249 249 249 249 249 248 248 247 246 245 244 244 244 245 245 246 246 246 248 250 251 252 253 255 257 259 260 261
278 278 280 283 284 282 278 276 277 279 280 280 277 275 274 272 270 267 264 262 260 258 257 255 254 254 254 253 253 253 253 253 252 251 250 249 249 248 248 249 250 250 251 252 253 254 254 254 253 253 252 252 251 251 252 252 252 252 252 252 252 252 252 251 250 249 248 248 247 247 247 248 249 250 252 253 254 256 257 258 259 260 262 263 263
275 276 276 277 278 277 276 275 275 275 276 275 274 273 274 273 271 269 267 266 265 263 262 260 258 258 257 256 256 256 255 255 255 254 253 253 252 251 250 250 250 251 252 253 254 255 256 256 256 256 255 254 253 253 252 252 253 254 254 254 254 254 254 253 253 252 251 250 250 249 249 249 250 251 253 254 256 257 258 259 260 261 262 263 264
274 275 275 275 274 274 274 274 273 272 271 271 271 272 272 271 269 268 268 266 266 265 264 264 263 262 261 261 260 259 259 258 257 257 256 255 254 253 253 252 251 251 252 253 254 255 256 257 257 257 257 256 255 254 253 253 253 254 255 255 255 255 255 255 255 255 254 253 252 251 251 251 251 252 253 254 255 256 257 258 259 260 261 262 263
272 273 274 275 273 272 272 272 271 270 269 269 268 268 268 268 268 268 267 266 265 266 266 266 266 265 265 264 264 263 263 262 261 260 259 258 256 255 254 253 252 252 252 252 253 254 256 257 257 258 258 258 257 257 256 255 254 255 255 256 256 256 256 255 255 255 255 255 255 254 254 253 253 253 253 254 255 256 257 258 259 260 261 262 263
274 272 271 271 271 272 271 271 270 269 269 268 267 267 266 266 267 267 267 267 267 267 267 267 266 266 266 266 266 266 266 266 265 265 263 262 261 259 257 256 254 253 253 253 254 255 256 257 258 258 258 259 259 259 259 258 258 257 257 257 257 257 256 256 255 255 255 255 255 256 256 256 256 256 255 255 255 255 256 257 258 259 260 261 263
280 278 273 269 268 269 270 270 270 270 269 268 268 267 266 266 266 267 268 268 268 267 267 267 267 267 267 268 268 268 267 267 266 266 265 265 264 263 262 260 258 257 256 256 256 256 257 258 259 259 259 259 259 260 260 261 260 260 260 260 260 260 259 258 257 257 256 256 256 255 256 256 257 257 258 258 258 257 257 257 258 259 260 261 262
280 281 279 275 270 268 267 267 268 269 269 268 268 268 268 267 267 267 268 269 269 268 268 268 268 268 268 269 270 270 269 268 267 267 266 266 266 265 265 264 263 261 260 260 259 259 259 259 259 260 260 260 260 260 261 261 262 262 262 262 262 262 261 261 260 260 259 259 258 258 257 257 257 257 258 258 259 259 258 258 258 258 259 260 261
278 279 279 279 276 273 269 266 266 266 267 267 267 267 268 268 268 268 268 269 268 268 269 269 269 269 270 270 269 269 269 269 268 268 268 267 267 267 267 266 265 264 263 262 262 261 261 260 260 260 260 260 261 261 261 262 262 263 263 263 263 263 263 262 262 261 261 261 261 260 260 260 259 259 258 258 259 259 259 258 258 258 258 258 259
278 277 276 277 278 277 274 269 265 265 265 266 266 266 267 267 268 268 268 268 268 269 269 269 269 270 270 270 269 269 269 269 269 269 269 269 269 269 269 268 267 266 265 264 263 262 262 261 261 261 261 261 261 261 261 262 262 262 262 262 263 263 262 262 262 262 262 261 261 261 262 262 261 261 261 260 260 259 258 257 256 256 256 256 257
278 276 275 276 275 275 275 273 268 264 263 264 265 266 266 267 268 269 269 269 270 270 270 269 270 270 269 270 269 269 269 268 268 269 269 270 270 270 270 270 269 268 267 266 265 264 262 261 260 260 260 260 260 260 260 260 260 261 261 261 261 262 262 262 262 262 262 261 261 262 262 262 262 262 262 262 261 260 259 257 255 254 254 254 254
276 274 275 275 273 273 274 274 270 266 264 263 264 265 266 267 268 269 269 269 270 270 270 270 270 269 268 268 268 268 269 268 268 269 269 270 270 271 271 271 271 271 270 269 268 266 264 263 261 260 259 259 259 259 258 258 259 259 259 260 261 261 262 262 262 263 263 263 263 263 263 263 263 264 263 263 263 262 261 259 257 255 254 254 254
270 270 272 272 272 274 275 273 270 267 265 264 265 265 266 267 268 269 269 269 268 268 268 268 268 268 267 266 266 267 267 267 268 268 269 269 270 271 272 272 272 272 271 271 270 269 267 266 264 262 260 258 258 257 257 258 258 259 260 261 262 263 263 263 263 263 264 264 264 265 265 265 265 265 264 264 264 264 263 261 259 258 256 256 255
265 265 266 268 272 274 275 274 273 270 267 266 265 266 267 267 268 268 268 267 266 266 266 266 266 266 265 265 264 264 264 265 266 267 268 268 269 270 271 272 273 272 272 271 271 270 269 268 266 265 263 261 259 258 258 258 259 259 260 261 261 261 261 261 261 262 263 263 264 265 265 266 266 266 265 265 265 265 264 262 261 260 259 258 257
261 260 261 264 269 272 274 275 277 278 274 269 267 266 266 267 267 266 266 265 266 266 266 266 265 265 264 263 263 262 262 263 263 264 266 267 268 269 270 271 272 272 272 271 271 271 271 270 268 266 265 263 262 261 260 259 259 258 258 258 258 258 258 259 259 260 261 262 263 264 265 266 266 266 266 266 265 265 264 263 262 261 260 259 259
259 258 259 261 265 270 275 277 279 279 278 275 271 267 265 265 266 266 266 266 266 267 267 267 266 265 263 263 263 263 263 263 263 263 264 265 267 268 269 270 271 272 272 272 272 273 273 272 270 267 265 264 264 263 262 260 259 258 257 256 256 257 257 258 259 260 262 263 264 265 265 265 266 266 266 266 266 265 264 264 263 262 262 261 261
261 260 261 262 266 271 275 278 279 278 278 278 276 271 268 266 266 267 267 267 268 268 269 269 267 266 265 265 265 265 265 265 264 263 263 263 264 265 266 268 269 271 272 273 273 273 273 272 271 269 266 264 264 264 263 261 259 258 257 257 257 258 259 260 261 262 264 265 266 267 267 267 266 266 265 265 265 265 264 264 263 263 263 263 262
266 266 264 265 269 272 274 277 279 279 278 277 277 276 274 272 270 268 268 268 268 268 268 267 266 265 266 267 267 267 267 266 264 263 262 261 261 262 264 265 267 269 271 272 273 273 273 272 272 270 268 265 264 263 263 262 261 260 259 259 259 260 261 262 263 265 267 269 270 270 270 270 268 267 266 265 264 264 263 263 263 263 263 263 263
274 272 269 268 268 271 273 274 275 277 277 276 276 276 276 275 274 273 272 270 268 267 265 264 263 264 265 266 267 266 265 264 263 262 261 261 262 262 264 265 267 268 270 271 272 272 273 273 272 270 268 265 264 263 263 262 262 261 261 261 262 263 264 265 267 269 271 272 272 272 272 272 270 269 268 266 265 264 264 263 262 262 262 262 262
278 274 271 268 267 267 269 270 272 273 274 274 273 273 274 275 276 276 275 273 269 266 263 262 261 262 264 265 265 265 264 264 264 264 264 263 264 264 265 266 267 268 269 270 271 272 272 273 271 268 266 265 264 262 262 262 262 262 262 263 264 265 266 268 270 271 272 272 273 272 272 272 271 270 269 267 266 266 265 264 263 262 261 261 261
278 275 271 267 264 263 264 266 267 269 270 271 271 271 272 274 275 275 273 271 269 267 264 262 262 262 263 264 265 265 266 266 266 265 265 265 265 265 266 266 267 268 269 269 269 269 269 269 268 266 265 264 263 262 261 261 261 261 262 263 265 266 268 269 271 272 272 273 273 272 272 271 271 270 269 267 267 267 267 266 264 263 262 261 261
279 279 277 273 269 267 265 265 264 265 266 267 268 269 270 271 271 271 271 268 266 265 264 263 262 263 263 264 264 265 265 266 266 266 266 266 265 265 266 266 267 268 268 268 266 265 264 263 263 262 262 263 262 261 261 260 260 261 262 263 265 266 268 270 271 272 273 273 273 272 271 270 270 269 269 268 267 267 268 268 266 264 263 262 262
279 281 281 279 277 275 273 270 267 265 264 264 264 265 265 266 266 267 266 265 263 264 264 263 262 261 262 262 263 264 265 265 265 266 266 266 266 266 266 267 268 268 268 268 266 263 261 260 260 259 259 260 260 260 260 260 261 262 263 264 265 267 268 270 272 273 273 273 272 271 270 270 269 269 268 267 267 268 269 268 267 265 264 263 263
277 279 280 279 278 276 274 272 270 269 267 264 262 261 261 261 261 261 261 262 262 263 263 263 262 262 262 263 264 264 265 264 264 263 264 264 265 266 267 268 269 269 269 269 267 265 262 260 258 257 256 257 258 259 260 261 261 262 263 264 265 267 269 270 272 272 272 271 270 270 269 270 270 270 269 268 268 267 268 268 267 266 265 265 264
273 275 277 278 277 275 272 271 271 270 268 267 264 262 260 259 258 258 259 260 261 262 263 263 263 263 263 263 263 264 264 263 263 262 262 264 265 266 267 268 269 270 270 270 269 267 264 261 258 256 255 256 258 259 259 259 260 261 263 264 266 267 269 270 271 271 270 270 270 270 270 271 271 271 271 271 270 268 268 267 267 267 267 267 266
272 274 275 274 274 272 271 271 272 271 270 269 268 267 265 263 261 259 258 258 259 260 261 263 263 263 263 263 262 262 262 262 262 262 263 264 265 266 266 267 268 269 270 271 270 268 265 261 258 257 257 258 259 259 258 258 259 261 263 264 266 267 268 269 269 269 269 269 270 271 272 273 272 272 272 272 271 270 269 268 267 267 267 267 268
270 270 270 269 268 269 270 273 275 277 278 277 275 273 272 270 268 266 263 261 260 260 260 261 262 262 262 262 262 262 262 262 262 262 263 264 265 265 266 267 267 268 269 270 270 268 266 263 261 260 259 260 259 258 258 258 260 261 263 265 266 267 268 268 268 268 268 269 271 273 273 274 274 273 273 273 272 270 269 268 267 266 266 266 267
268 268 268 267 267 267 269 273 277 281 285 286 286 283 280 277 274 271 268 265 263 262 261 261 260 260 261 261 262 263 263 263 263 263 263 263 264 264 264 265 266 266 267 267 267 266 265 264 263 262 261 260 259 258 259 260 260 261 263 265 266 267 267 267 267 267 267 269 271 272 272 273 273 273 273 272 272 271 270 269 268 267 266 265 265
267 269 271 272 272 272 273 274 277 281 286 289 290 289 286 282 279 275 272 269 267 265 263 261 260 260 261 261 262 263 263 264 264 263 263 263 262 262 262 262 263 263 264 264 265 263 262 261 261 261 261 260 259 259 260 259 260 261 263 265 266 266 266 266 266 266 266 267 268 270 270 271 271 271 271 270 270 269 268 268 267 267 267 266 265
267 270 273 275 276 277 277 277 279 282 286 288 289 288 286 283 279 276 273 271 268 267 265 264 263 262 262 262 262 262 262 263 263 262 262 262 261 261 261 261 261 261 261 262 262 260 259 258 258 258 258 259 259 259 258 259 260 262 264 265 265 265 265 264 264 264 265 266 266 268 269 269 270 270 269 268 268 267 267 266 266 265 266 266 265
264 267 270 272 275 277 278 279 280 282 284 286 287 287 285 282 278 275 273 271 270 269 267 267 266 265 265 264 263 262 262 261 261 260 260 260 260 260 260 260 260 260 260 259 258 257 255 254 255 255 255 256 256 256 257 259 261 262 263 264 264 264 263 263 263 264 264 265 265 266 266 267 268 268 268 267 267 266 266 265 264 264 264 264 264
261 263 265 267 270 272 274 277 278 280 283 285 286 286 285 282 278 275 273 271 271 270 269 268 267 266 265 265 265 264 263 262 261 260 259 259 260 260 260 260 260 259 259 258 257 254 252 252 252 252 252 253 253 254 256 258 259 261 262 262 262 262 262 262 263 263 264 265 265 265 265 266 267 267 266 266 266 266 266 266 265 264 264 264 264
265 267 268 270 272 273 274 276 278 280 282 284 286 286 285 283 279 276 273 271 271 270 269 268 267 266 265 264 263 263 263 263 262 261 260 260 260 261 261 260 260 259 258 257 256 253 252 251 250 250 250 251 252 253 254 256 257 258 258 259 259 260 261 261 262 262 263 264 264 265 265 266 266 266 266 267 267 267 267 267 267 266 265 264 264
Height
5871 5871 5870 5870 5869 5869 5869 5868 5868 5867 5867 5867 5867 5867 5867 5866 5866 5867 5867 5867 5868 5868 5869 5870 5870 5871 5871 5872 5872 5873 5873 5873 5874 5874 5874 5874 5874 5875 5875 5876 5876 5876 5877 5877 5878 5879 5879 5880 5880 5881 5881 5881 5882 5882 5883 5883 5883 5884 5884 5884 5885 5885 5885 5886 5886 5886 5887 5887 5888 5888 5889 5889 5889 5889 5889 5889 5889 5889 5889 5889 5889 5889 5890 5890 5890
5872 5871 5871 5870 5870 5869 5869 5868 5868 5868 5867 5867 5867 5867 5867 5867 5867 5867 5867 5867 5868 5868 5869 5869 5870 5870 5871 5871 5871 5872 5872 5873 5873 5873 5874 5874 5875 5875 5875 5875 5876 5876 5876 5877 5878 5878 5879 5879 5879 5879 5880 5880 5881 5881 5882 5882 5882 5883 5883 5883 5884 5884 5885 5885 5885 5886 5886 5886 5887 5887 5888 5888 5888 5888 5888 5888 5888 5889 5889 5889 5889 5889 5889 5889 5889
5872 5871 5871 5870 5870 5869 5869 5868 5868 5868 5867 5867 5867 5866 5867 5867 5867 5867 5867 5867 5868 5868 5869 5869 5869 5870 5870 5871 5871 5871 5872 5872 5873 5873 5874 5874 5874 5874 5875 5875 5875 5875 5876 5876 5877 5877 5878 5878 5878 5878 5878 5879 5880 5880 5881 5881 5881 5881 5882 5882 5883 5883 5883 5884 5884 5885 5885 5885 5886 5886 5887 5887 5887 5887 5887 5888 5888 5888 5888 5888 5888 5888 5888 5888 5889
5871 5871 5871 5870 5870 5870 5869 5869 5868 5868 5868 5867 5867 5867 5867 5867 5867 5867 5867 5867 5868 5868 5869 5869 5869 5869 5870 5870 5870 5871 5871 5872 5872 5872 5873 5873 5873 5873 5874 5874 5874 5874 5875 5876 5876 5876 5876 5877 5877 5877 5877 5878 5879 5879 5880 5880 5880 5880 5881 5881 5881 5882 5882 5883 5883 5883 5884 5884 5885 5885 5885 5886 5886 5886 5886 5887 5887 5887 5887 5887 5887 5887 5887 5888 5888
5871 5870 5870 5870 5870 5870 5869 5869 5868 5868 5868 5867 5867 5867 5867 5867 5867 5867 5867 5867 5868 5868 5868 5869 5869 5869 5870 5870 5870 5870 5870 5871 5871 5871 5871 5872 5872 5872 5873 5873 5873 5874 5874 5875 5875 5875 5875 5875 5876 5876 5876 5877 5878 5878 5879 5879 5879 5879 5880 5880 5880 5881 5881 5881 5882 5882 5883 5883 5883 5884 5884 5885 5885 5884 5885 5885 5885 5886 5886 5886 5886 5886 5886 5887 5887
5870 5869 5869 5869 5869 5869 5869 5869 5868 5868 5868 5867 5867 5867 5867 5867 5867 5867 5867 5868 5868 5868 5868 5869 5869 5869 5870 5870 5870 5870 5870 5870 5870 5871 5871 5871 5871 5872 5872 5872 5873 5873 5873 5874 5874 5874 5874 5875 5875 5875 5876 5876 5877 5877 5878 5878 5878 5878 5879 5879 5879 5880 5880 5880 5880 5881 5881 5882 5882 5882 5883 5883 5883 5883 5883 5884 5884 5884 5884 5885 5885 5885 5885 5885 5886
5868 5868 5868 5868 5868 5869 5869 5868 5868 5868 5868 5867 5867 5867 5867 5867 5867 5867 5868 5868 5868 5868 5868 5869 5869 5869 5870 5870 5870 5870 5870 5870 5870 5870 5871 5871 5871 5871 5871 5872 5872 5872 5873 5873 5873 5873 5874 5874 5874 5874 5875 5875 5875 5876 5876 5877 5877 5877 5877 5878 5878 5878 5879 5879 5879 5879 5880 5880 5881 5881 5882 5882 5882 5882 5882 5882 5882 5883 5883 5883 5883 5883 5884 5884 5884
5867 5867 5867 5867 5867 5867 5868 5868 5868 5868 5867 5867 5867 5867 5867 5867 5867 5867 5868 5868 5868 5868 5868 5869 5869 5869 5870 5870 5870 5870 5870 5870 5870 5871 5871 5871 5871 5871 5871 5871 5871 5872 5872 5872 5872 5873 5873 5873 5873 5874 5874 5874 5874 5875 5875 5875 5876 5876 5876 5876 5876 5877 5877 5878 5878 5878 5879 5879 5879 5880 5880 5880 5881 5881 5881 5881 5881 5881 5882 5882 5882 5882 5882 5883 5883
5866 5866 5866 5866 5866 5866 5866 5867 5867 5867 5867 5867 5867 5867 5867 5867 5867 5867 5867 5867 5868 5868 5868 5868 5869 5869 5869 5870 5870 5870 5870 5870 5870 5870 5871 5871 5871 5871 5871 5871 5871 5871 5871 5872 5872 5872 5872 5872 5873 5873 5873 5873 5874 5874 5874 5874 5874 5875 5875 5875 5875 5876 5876 5876 5877 5877 5877 5878 5878 5878 5878 5879 5879 5879 5879 5880 5880 5880 5880 5881 5881 5881 5881 5882 5882
5865 5865 5865 5865 5865 5865 5865 5865 5866 5866 5866 5866 5866 5866 5866 5866 5866 5866 5866 5867 5867 5867 5867 5868 5868 5868 5869 5869 5869 5870 5870 5870 5870 5870 5870 5870 5870 5870 5870 5871 5871 5871 5871 5871 5871 5871 5872 5872 5872 5872 5873 5873 5873 5873 5873 5873 5874 5874 5874 5874 5874 5874 5875 5875 5875 5876 5876 5876 5877 5877 5877 5878 5878 5878 5878 5879 5879 5879 5879 5879 5880 5880 5880 5880 5881
5865 5864 5864 5864 5863 5863 5864 5864 5864 5865 5865 5865 5865 5865 5865 5865 5865 5866 5866 5866 5866 5866 5867 5867 5867 5868 5868 5868 5868 5869 5869 5869 5870 5870 5870 5870 5870 5870 5870 5870 5870 5870 5870 5870 5871 5871 5871 5871 5871 5872 5872 5872 5872 5872 5872 5872 5873 5873 5873 5873 5873 5873 5873 5874 5874 5874 5875 5875 5875 5876 5876 5877 5877 5877 5877 5878 5878 5878 5878 5878 5878 5879 5879 5879 5879
5864 5864 5863 5863 5863 5862 5862 5862 5863 5863 5864 5864 5864 5864 5865 5865 5865 5865 5865 5865 5865 5866 5866 5866 5866 5867 5867 5867 5867 5868 5868 5868 5869 5869 5869 5869 5869 5869 5869 5869 5869 5870 5870 5870 5870 5870 5870 5871 5871 5871 5871 5871 5872 5872 5872 5872 5872 5872 5872 5872 5872 5872 5873 5873 5873 5873 5873 5874 5874 5874 5875 5875 5875 5876 5876 5876 5876 5877 5877 5877 5877 5878 5878 5878 5878
5864 5863 5863 5862 5862 5862 5861 5861 5861 5862 5862 5862 5863 5863 5863 5863 5864 5864 5864 5864 5864 5865 5865 5865 5865 5865 5866 5866 5866 5867 5867 5867 5867 5868 5868 5868 5868 5868 5868 5869 5869 5869 5869 5869 5869 5869 5870 5870 5870 5870 5870 5871 5871 5871 5871 5871 5871 5871 5871 5871 5872 5872 5872 5872 5872 5872 5872 5872 5873 5873 5873 5874 5874 5874 5875 5875 5875 5875 5876 5876 5876 5876 5877 5877 5877
5863 5863 5862 5862 5861 5861 5861 5860 5860 5860 5860 5861 5861 5861 5862 5862 5862 5863 5863 5863 5863 5864 5864 5864 5864 5864 5864 5865 5865 5865 5866 5866 5866 5866 5866 5867 5867 5867 5867 5867 5868 5868 5868 5868 5869 5869 5869 5869 5869 5869 5870 5870 5870 5870 5870 5870 5870 5870 5871 5871 5871 5871 5871 5871 5871 5871 5871 5871 5871 5872 5872 5872 5873 5873 5873 5874 5874 5874 5875 5875 5875 5875 5876 5876 5876
5862 5862 5861 5861 5861 5860 5860 5860 5859 5859 5859 5859 5859 5860 5860 5860 5861 5861 5862 5862 5862 5862 5862 5863 5863 5863 5863 5863 5864 5864 5864 5864 5865 5865 5865 5865 5865 5865 5866 5866 5866 5866 5867 5867 5867 5868 5868 5868 5868 5868 5869 5869 5869 5869 5869 5869 5869 5869 5870 5870 5870 5870 5870 5870 5870 5870 5870 5870 5870 5871 5871 5871 5872 5872 5872 5873 5873 5873 5873 5874 5874 5875 5875 5875 5875
5861 5861 5860 5860 5860 5859 5859 5859 5858 5858 5858 5858 5858 5858 5858 5859 5859 5860 5860 5860 5860 5861 5861 5861 5861 5861 5862 5862 5862 5862 5863 5863 5863 5863 5863 5863 5863 5864 5864 5864 5864 5865 5865 5865 5866 5866 5866 5867 5867 5867 5867 5867 5867 5867 5867 5868 5868 5868 5868 5868 5868 5868 5868 5868 5868 5869 5869 5869 5869 5870 5870 5870 5870 5871 5871 5871 5872 5872 5872 5873 5873 5873 5874 5874 5874
5860 5860 5859 5859 5859 5858 5858 5858 5857 5857 5857 5857 5857 5857 5857 5857 5857 5858 5858 5858 5859 5859 5859 5859 5860 5860 5860 5860 5860 5860 5861 5861 5861 5861 5861 5861 5862 5862 5862 5862 5863 5863 5863 5863 5864 5864 5864 5864 5865 5865 5865 5865 5865 5865 5866 5866 5866 5866 5866 5866 5866 5867 5867 5867 5867 5867 5867 5868 5868 5868 5869 5869 5869 5869 5870 5870 5871 5871 5871 5871 5872 5872 5872 5873 5873
5859 5859 5858 5858 5858 5857 5857 5856 5856 5856 5856 5856 5855 5855 5855 5855 5856 5856 5856 5857 5857 5857 5857 5858 5858 5858 5858 5858 5858 5859 5859 5859 5859 5859 5859 5860 5860 5860 5860 5860 5860 5861 5861 5861 5862 5862 5862 5862 5862 5862 5863 5863 5863 5863 5863 5863 5864 5864 5864 5864 5864 5864 5865 5865 5865 5865 5866 5866 5866 5867 5867 5867 5868 5868 5868 5868 5869 5869 5870 5870 5870 5870 5870 5871 5871
5858 5857 5857 5857 5856 5856 5855 5855 5855 5854 5854 5854 5854 5854 5854 5854 5854 5854 5854 5854 5855 5855 5855 5855 5856 5856 5856 5856 5856 5857 5857 5857 5857 5857 5857 5857 5857 5858 5858 5858 5858 5859 5859 5859 5859 5859 5860 5860 5860 5860 5860 5860 5861 5861 5861 5861 5861 5861 5862 5862 5862 5862 5862 5863 5863 5863 5864 5864 5865 5865 5865 5865 5866 5866 5866 5867 5867 5867 5868 5868 5868 5868 5868 5868 5869
5856 5855 5855 5855 5855 5854 5854 5853 5853 5853 5853 5853 5852 5852 5852 5852 5853 5853 5853 5853 5853 5853 5853 5853 5853 5853 5854 5854 5854 5854 5854 5854 5854 5855 5855 5855 5855 5855 5855 5856 5856 5856 5856 5857 5857 5857 5857 5857 5858 5858 5858 5858 5858 5858 5859 5859 5859 5859 5859 5859 5860 5860 5860 5860 5861 5861 5862 5862 5862 5863 5863 5863 5864 5864 5864 5865 5865 5865 5865 5866 5866 5866 5866 5866 5866
5854 5854 5853 5853 5853 5852 5852 5852 5852 5851 5851 5851 5851 5851 5851 5851 5851 5851 5851 5851 5851 5851 5851 5851 5851 5851 5851 5851 5851 5852 5852 5852 5852 5852 5852 5852 5853 5853 5853 5853 5853 5854 5854 5854 5854 5854 5855 5855 5855 5855 5856 5856 5856 5856 5856 5856 5856 5857 5857 5857 5857 5857 5857 5858 5858 5859 5859 5860 5860 5861 5861 5861 5862 5862 5862 5862 5863 5863 5863 5863 5863 5864 5864 5864 5864
5853 5852 5852 5852 5851 5850 5850 5850 5850 5849 5849 5849 5849 5849 5849 5849 5849 5849 5849 5849 5849 5849 5849 5849 5849 5849 5849 5849 5849 5849 5849 5849 5849 5849 5850 5850 5850 5850 5850 5850 5851 5851 5851 5851 5852 5852 5852 5852 5852 5853 5853 5853 5853 5853 5854 5854 5854 5854 5854 5854 5854 5855 5855 5855 5855 5856 5856 5857 5857 5858 5858 5859 5859 5860 5860 5860 5860 5860 5861 5861 5861 5861 5861 5861 5862
5850 5850 5850 5850 5849 5848 5848 5848 5847 5847 5847 5847 5847 5847 5847 5847 5847 5847 5847 5847 5847 5847 5847 5847 5847 5847 5847 5847 5847 5847 5847 5847 5847 5847 5847 5847 5847 5847 5847 5848 5848 5848 5848 5849 5849 5849 5849 5849 5850 5850 5850 5850 5850 5851 5851 5851 5851 5851 5851 5852 5852 5852 5852 5852 5853 5853 5853 5854 5854 5855 5856 5856 5857 5857 5857 5857 5857 5858 5858 5858 5858 5858 5859 5859 5859
5847 5848 5848 5848 5847 5846 5846 5845 5845 5845 5845 5845 5845 5845 5845 5845 5845 5845 5845 5845 5845 5845 5845 5845 5845 5845 5845 5845 5845 5844 5844 5844 5844 5844 5844 5844 5844 5844 5844 5845 5845 5845 5845 5845 5846 5846 5846 5846 5847 5847 5847 5847 5847 5848 5848 5848 5848 5848 5848 5849 5849 5849 5849 5849 5850 5850 5851 5851 5851 5852 5852 5853 5854 5854 5854 5854 5854 5855 5855 5855 5855 5855 5856 5856 5856
5843 5844 5844 5844 5844 5844 5844 5843 5843 5843 5843 5843 5843 5843 5843 5843 5843 5843 5843 5843 5843 5843 5843 5842 5842 5842 5842 5842 5842 5842 5842 5842 5842 5841 5841 5841 5841 5841 5841 5841 5842 5842 5842 5842 5842 5843 5843 5843 5843 5844 5844 5844 5844 5844 5845 5845 5845 5845 5845 5845 5845 5846 5846 5846 5846 5847 5847 5848 5848 5849 5849 5850 5850 5851 5851 5851 5851 5851 5851 5852 5852 5852 5852 5852 5853
5840 5840 5840 5841 5841 5841 5841 5840 5840 5840 5840 5840 5840 5840 5841 5841 5841 5841 5841 5841 5841 5840 5840 5840 5840 5840 5840 5840 5840 5839 5839 5839 5839 5839 5839 5839 5839 5839 5838 5838 5839 5839 5839 5839 5839 5839 5839 5840 5840 5840 5840 5840 5841 5841 5841 5841 5841 5842 5842 5842 5842 5842 5842 5842 5843 5843 5843 5844 5844 5845 5846 5846 5847 5847 5847 5847 5847 5848 5848 5848 5848 5848 5848 5849 5849
5838 5837 5836 5836 5836 5837 5837 5837 5837 5837 5837 5837 5837 5838 5838 5838 5838 5838 5838 5838 5838 5838 5837 5837 5837 5837 5837 5837 5837 5836 5836 5836 5836 5836 5836 5836 5836 5836 5836 5836 5835 5835 5836 5836 5836 5836 5836 5836 5836 5836 5837 5837 5837 5837 5837 5838 5838 5838 5838 5838 5838 5839 5839 5839 5839 5839 5840 5840 5840 5841 5841 5842 5843 5843 5843 5844 5844 5844 5844 5844 5844 5845 5845 5845 5846
5835 5834 5833 5832 5832 5832 5832 5833 5833 5833 5834 5834 5834 5835 5834 5835 5835 5835 5835 5835 5835 5835 5834 5834 5834 5834 5834 5834 5834 5833 5833 5833 5833 5833 5833 5833 5833 5833 5833 5833 5832 5832 5832 5832 5832 5833 5833 5833 5833 5833 5833 5833 5833 5833 5834 5834 5834 5834 5834 5835 5835 5835 5835 5835 5836 5836 5836 5836 5837 5837 5837 5838 5838 5839 5839 5839 5840 5840 5840 5840 5840 5841 5841 5842 5842
5831 5829 5829 5829 5828 5827 5827 5828 5829 5829 5830 5830 5831 5831 5831 5831 5832 5832 5832 5831 5832 5831 5831 5831 5831 5831 5831 5831 5830 5830 5830 5830 5830 5830 5830 5830 5830 5830 5830 5829 5829 5829 5829 5829 5829 5829 5830 5830 5830 5830 5830 5830 5830 5830 5830 5830 5830 5830 5831 5831 5831 5831 5832 5832 5832 5832 5832 5833 5833 5833 5834 5834 5834 5835 5835 5835 5835 5835 5836 5836 5836 5837 5837 5838 5838
5827 5825 5825 5824 5823 5823 5823 5824 5824 5825 5825 5826 5827 5827 5828 5828 5828 5828 5828 5828 5828 5828 5827 5827 5827 5827 5827 5827 5827 5826 5826 5826 5826 5826 5826 5826 5826 5826 5826 5826 5826 5826 5826 5826 5826 5826 5826 5826 5826 5826 5826 5826 5826 5826 5826 5827 5827 5827 5827 5827 5827 5827 5828 5828 5828 5828 5828 5829 5829 5829 5829 5830 5830 5830 5831 5831 5831 5831 5831 5832 5832 5832 5833 5833 5834
5823 5821 5821 5819 5818 5819 5819 5819 5819 5820 5821 5822 5823 5823 5824 5824 5824 5824 5824 5824 5823 5823 5823 5823 5823 5823 5823 5822 5822 5822 5822 5822 5822 5822 5823 5823 5823 5823 5823 5823 5823 5822 5822 5823 5822 5823 5823 5823 5823 5823 5823 5823 5823 5823 5823 5823 5823 5823 5823 5823 5823 5823 5824 5824 5824 5824 5825 5825 5825 5825 5825 5825 5826 5826 5827 5827 5827 5827 5827 5828 5828 5828 5828 5829 5830
5819 5818 5816 5815 5815 5815 5815 5815 5815 5816 5817 5818 5819 5819 5820 5820 5820 5820 5820 5819 5819 5819 5819 5819 5819 5818 5818 5818 5818 5818 5818 5818 5818 5818 5818 5819 5819 5819 5819 5819 5819 5818 5818 5818 5818 5819 5819 5819 5819 5819 5819 5819 5819 5819 5819 5819 5819 5819 5819 5819 5820 5820 5820 5820 5821 5821 5821 5821 5821 5821 5821 5821 5821 5822 5822 5822 5823 5823 5823 5824 5824 5824 5824 5825 5825
5813 5813 5812 5813 5812 5811 5811 5811 5811 5812 5813 5814 5814 5815 5815 5816 5815 5816 5816 5815 5815 5815 5815 5815 5814 5814 5814 5813 5813 5813 5813 5813 5813 5814 5814 5814 5815 5815 5815 5815 5814 5814 5814 5814 5814 5814 5815 5815 5815 5815 5815 5815 5815 5815 5815 5815 5815 5815 5816 5816 5816 5816 5816 5817 5817 5817 5817 5817 5817 5817 5817 5817 5817 5817 5817 5818 5818 5818 5819 5819 5819 5820 5820 5821 5821
5808 5808 5809 5809 5809 5809 5808 5808 5809 5809 5809 5810 5810 5811 5811 5811 5811 5812 5812 5812 5811 5812 5812 5811 5810 5810 5809 5809 5809 5809 5809 5809 5809 5809 5810 5810 5810 5810 5811 5810 5810 5810 5810 5810 5810 5810 5810 5810 5810 5810 5811 5811 5811 5811 5811 5811 5811 5811 5811 5812 5812 5812 5812 5812 5813 5813 5813 5813 5813 5813 5813 5813 5813 5813 5813 5813 5813 5813 5814 5814 5814 5815 5815 5816 5816
5804 5805 5806 5806 5806 5807 5806 5806 5806 5806 5806 5806 5806 5806 5806 5807 5807 5808 5808 5808 5808 5808 5808 5807 5807 5806 5805 5805 5805 5805 5805 5805 5805 5805 5806 5806 5806 5806 5806 5806 5806 5806 5806 5806 5806 5806 5806 5806 5806 5806 5806 5806 5806 5806 5806 5807 5807 5807 5807 5807 5808 5808 5808 5808 5808 5808 5809 5809 5809 5809 5808 5808 5808 5808 5808 5808 5808 5808 5809 5809 5809 5810 5810 5811 5811
5802 5803 5803 5803 5803 5803 5803 5803 5803 5803 5803 5802 5802 5802 5802 5803 5803 5803 5804 5804 5804 5804 5804 5803 5802 5802 5801 5802 5802 5802 5801 5801 5801 5801 5801 5801 5801 5801 5801 5801 5801 5801 5802 5802 5801 5801 5801 5801 5801 5801 5801 5801 5801 5801 5802 5802 5802 5803 5803 5803 5803 5803 5803 5803 5804 5804 5804 5804 5804 5804 5804 5804 5804 5804 5804 5804 5803 5804 5804 5804 5804 5805 5805 5805 5806
5799 5800 5799 5799 5799 5799 5799 5799 5799 5799 5799 5799 5799 5798 5798 5798 5798 5799 5799 5800 5800 5800 5799 5799 5798 5798 5798 5798 5798 5797 5797 5797 5796 5796 5797 5797 5797 5797 5797 5797 5797 5797 5797 5797 5797 5797 5797 5796 5796 5796 5796 5796 5796 5796 5797 5798 5798 5798 5798 5798 5798 5798 5798 5798 5799 5799 5799 5799 5799 5799 5799 5799 5799 5799 5799 5799 5799 5799 5799 5799 5799 5799 5800 5800 5800
5795 5795 5795 5795 5794 5794 5794 5795 5795 5795 5795 5795 5794 5794 5794 5794 5794 5794 5794 5795 5795 5794 5794 5794 5794 5794 5793 5793 5793 5793 5792 5792 5792 5792 5793 5793 5793 5793 5793 5793 5792 5792 5792 5792 5792 5792 5792 5792 5791 5791 5791 5791 5791 5792 5792 5793 5793 5793 5793 5793 5794 5793 5793 5794 5794 5794 5794 5794 5794 5794 5794 5794 5793 5793 5794 5794 5794 5794 5794 5794 5794 5794 5794 5794 5795
5790 5790 5790 5790 5789 5789 5789 5790 5790 5790 5790 5790 5790 5789 5789 5789 5789 5789 5789 5790 5789 5789 5789 5789 5790 5789 5789 5789 5789 5789 5789 5788 5788 5788 5788 5788 5788 5788 5788 5788 5788 5788 5787 5787 5788 5787 5787 5787 5786 5786 5786 5786 5786 5787 5787 5787 5787 5787 5788 5788 5788 5788 5788 5789 5789 5789 5789 5789 5789 5789 5789 5789 5788 5788 5788 5789 5789 5789 5789 5789 5789 5789 5789 5789 5790
5786 5786 5786 5786 5786 5785 5785 5785 5785 5784 5784 5784 5784 5784 5784 5784 5784 5784 5784 5784 5784 5784 5784 5785 5785 5785 5785 5785 5784 5784 5785 5784 5784 5784 5784 5784 5783 5783 5783 5783 5783 5783 5783 5783 5782 5781 5781 5781 5781 5781 5781 5781 5781 5781 5782 5782 5782 5782 5783 5783 5783 5783 5783 5783 5783 5783 5783 5783 5783 5783 5783 5783 5783 5783 5783 5783 5783 5784 5784 5784 5784 5784 5784 5784 5784
5782 5782 5782 5782 5782 5782 5782 5781 5781 5780 5780 5780 5779 5778 5778 5778 5778 5778 5778 5778 5778 5778 5779 5779 5780 5780 5780 5780 5780 5780 5780 5780 5779 5779 5778 5778 5778 5778 5778 5778 5778 5778 5777 5777 5776 5776 5775 5776 5776 5776 5776 5776 5776 5776 5776 5776 5777 5777 5778 5778 5778 5778 5778 5778 5778 5777 5777 5777 5777 5777 5778 5778 5778 5778 5778 5778 5778 5778 5779 5779 5778 5778 5779 5779 5779
5778 5777 5777 5777 5777 5777 5777 5777 5776 5776 5775 5775 5774 5773 5773 5772 5772 5772 5772 5772 5773 5773 5773 5774 5774 5774 5774 5775 5775 5775 5775 5774 5774 5773 5772 5772 5773 5773 5773 5773 5772 5772 5772 5772 5771 5771 5771 5771 5771 5771 5770 5770 5770 5771 5771 5771 5772 5772 5772 5772 5773 5773 5772 5772 5772 5771 5771 5771 5772 5772 5772 5772 5772 5772 5773 5773 5773 5773 5773 5773 5773 5773 5773 5774 5774
5773 5773 5772 5772 5772 5772 5772 5772 5772 5771 5771 5770 5770 5769 5768 5767 5767 5767 5767 5767 5767 5768 5768 5768 5768 5768 5768 5769 5769 5768 5768 5768 5767 5767 5767 5767 5767 5767 5767 5767 5767 5767 5767 5766 5766 5766 5766 5766 5766 5765 5765 5765 5765 5766 5766 5766 5766 5766 5766 5767 5767 5767 5767 5767 5766 5765 5766 5766 5766 5766 5766 5766 5767 5767 5767 5767 5767 5768 5768 5768 5768 5768 5768 5769 5769
5768 5768 5768 5768 5768 5768 5768 5768 5767 5767 5766 5766 5765 5765 5764 5763 5763 5762 5762 5762 5762 5762 5762 5762 5762 5762 5762 5762 5761 5761 5761 5760 5760 5760 5761 5761 5761 5761 5761 5761 5761 5761 5761 5761 5761 5761 5760 5760 5760 5760 5760 5760 5760 5761 5760 5760 5761 5761 5761 5761 5761 5761 5761 5761 5760 5760 5760 5760 5760 5761 5761 5761 5761 5761 5761 5762 5762 5762 5762 5762 5762 5762 5763 5763 5764
5764 5763 5763 5763 5763 5763 5763 5763 5763 5763 5762 5762 5761 5761 5760 5759 5759 5758 5758 5757 5757 5757 5756 5756 5756 5755 5755 5754 5754 5754 5754 5754 5754 5754 5754 5754 5754 5755 5755 5754 5755 5754 5755 5755 5755 5755 5755 5755 5755 5755 5755 5755 5755 5755 5755 5755 5756 5755 5755 5755 5755 5755 5755 5755 5754 5755 5755 5755 5755 5755 5756 5756 5756 5756 5756 5756 5756 5756 5756 5756 5756 5757 5757 5758 5758
5760 5759 5759 5758 5758 5758 5758 5758 5758 5758 5758 5758 5758 5757 5757 5756 5755 5754 5753 5753 5753 5752 5752 5751 5750 5749 5748 5748 5748 5748 5748 5747 5747 5747 5747 5748 5748 5748 5748 5748 5748 5748 5748 5748 5748 5749 5749 5750 5749 5749 5749 5749 5749 5749 5750 5750 5750 5750 5750 5749 5749 5748 5749 5749 5749 5749 5749 5750 5750 5750 5750 5750 5750 5750 5750 5750 5750 5751 5751 5751 5751 5751 5751 5752 5752
5755 5755 5754 5753 5753 5752 5752 5752 5752 5752 5752 5752 5752 5752 5752 5752 5751 5750 5749 5748 5748 5747 5747 5746 5745 5745 5744 5743 5743 5742 5742 5741 5741 5741 5741 5741 5741 5741 5741 5740 5740 5741 5741 5741 5742 5742 5743 5743 5743 5743 5743 5743 5743 5744 5745 5744 5744 5744 5744 5743 5743 5742 5742 5743 5743 5743 5744 5744 5745 5744 5745 5745 5745 5745 5745 5745 5745 5745 5745 5745 5745 5745 5745 5746 5746
5751 5750 5749 5748 5747 5747 5746 5746 5745 5745 5745 5745 5745 5745 5746 5746 5745 5744 5744 5743 5742 5742 5741 5741 5740 5740 5739 5739 5738 5737 5736 5735 5735 5734 5734 5734 5733 5733 5733 5733 5733 5733 5734 5734 5735 5735 5735 5735 5736 5736 5737 5737 5738 5738 5738 5738 5738 5739 5738 5737 5737 5736 5736 5737 5737 5737 5738 5739 5739 5739 5739 5739 5739 5739 5739 5739 5739 5739 5739 5739 5739 5739 5739 5740 5740
5746 5745 5744 5743 5742 5741 5740 5739 5739 5738 5739 5738 5738 5738 5738 5739 5738 5738 5738 5737 5736 5736 5736 5735 5735 5734 5734 5733 5732 5731 5730 5729 5728 5728 5727 5727 5727 5727 5727 5727 5727 5727 5726 5727 5727 5727 5727 5728 5728 5729 5730 5730 5731 5731 5732 5733 5733 5732 5732 5731 5731 5731 5731 5731 5731 5731 5732 5732 5733 5733 5733 5733 5733 5734 5733 5734 5734 5733 5733 5733 5733 5733 5733 5734 5734
5739 5739 5738 5738 5737 5736 5735 5734 5733 5732 5732 5731 5731 5731 5731 5731 5731 5731 5731 5730 5730 5729 5729 5729 5728 5728 5727 5727 5726 5725 5724 5724 5723 5722 5721 5721 5720 5720 5720 5720 5720 5720 5719 5719 5720 5720 5720 5720 5720 5721 5721 5722 5723 5724 5725 5726 5726 5725 5725 5725 5725 5724 5724 5724 5725 5725 5726 5726 5726 5727 5727 5727 5727 5727 5727 5727 5727 5727 5727 5727 5727 5727 5727 5728 5728
5732 5731 5731 5730 5730 5730 5729 5728 5727 5726 5725 5725 5724 5724 5724 5724 5724 5724 5723 5723 5722 5722 5721 5721 5721 5721 5720 5719 5719 5718 5718 5717 5717 5716 5716 5715 5715 5714 5714 5714 5713 5713 5712 5712 5713 5713 5713 5712 5712 5712 5713 5714 5716 5716 5717 5718 5718 5718 5718 5717 5717 5717 5717 5718 5718 5719 5719 5719 5719 5720 5720 5720 5720 5721 5721 5721 5721 5721 5721 5721 5721 5721 5721 5722 5722